When you browse on this site, cookies collect data to enhance your experience and personalize the content and advertising you see.
Visit our Privacy Policy to learn more. By continuing to use the site, you agree to this use of cookies and data.
  • In Hungary
  • List of Countries
  • For 7 days
  • Water Temperature
  • Satellite Maps
  • Weather Map
  • News
  • Weather Widgets
  • user-avatar
    Login

    Hourly Weather Brudno

    Today, 25 May, Saturday

    Time Temperature Precipitation Wind Pressure Humidity
    00:00 +14°C° 0 mm 2 mps 745 mmHg 92%
    01:00 +13°C° 0 mm 2 mps 745 mmHg 93%
    02:00 +13°C° 0 mm 2 mps 745 mmHg 94%
    03:00 +13°C° 0 mm 2 mps 745 mmHg 94%
    04:00 +13°C° 0 mm 2 mps 745 mmHg 94%
    05:00 +12°C° 0 mm 2 mps 745 mmHg 94%
    06:00 +14°C° 0 mm 2 mps 745 mmHg 91%
    07:00 +15°C° 0 mm 2 mps 745 mmHg 87%
    08:00 +17°C° 0 mm 3 mps 745 mmHg 83%
    09:00 +18°C° 0.1 mm 3 mps 745 mmHg 77%
    10:00 +19°C° 0.1 mm 4 mps 745 mmHg 71%
    11:00 +20°C° 0.1 mm 5 mps 745 mmHg 66%
    12:00 +21°C° 0 mm 5 mps 745 mmHg 63%
    13:00 +21°C° 0 mm 5 mps 745 mmHg 59%
    14:00 +22°C° 0 mm 4 mps 745 mmHg 56%
    15:00 +22°C° 0 mm 4 mps 745 mmHg 56%
    16:00 +22°C° 0 mm 4 mps 745 mmHg 57%
    17:00 +22°C° 0 mm 3 mps 744 mmHg 57%
    18:00 +20°C° 0.1 mm 3 mps 744 mmHg 65%
    19:00 +19°C° 0.1 mm 3 mps 744 mmHg 72%
    20:00 +17°C° 0.1 mm 3 mps 744 mmHg 79%
    21:00 +16°C° 0 mm 3 mps 745 mmHg 83%
    22:00 +14°C° 0 mm 3 mps 745 mmHg 87%
    23:00 +13°C° 0 mm 3 mps 746 mmHg 90%

    Tomorrow, 26 May, Sunday

    Time Temperature Precipitation Wind Pressure Humidity
    00:00 +12°C° 0 mm 3 mps 746 mmHg 92%
    01:00 +12°C° 0 mm 3 mps 746 mmHg 93%
    02:00 +12°C° 0 mm 2 mps 746 mmHg 94%
    03:00 +12°C° 0 mm 2 mps 746 mmHg 94%
    04:00 +12°C° 0 mm 2 mps 746 mmHg 94%
    05:00 +10°C° 0 mm 2 mps 746 mmHg 94%
    06:00 +12°C° 0 mm 3 mps 746 mmHg 88%
    07:00 +13°C° 0 mm 3 mps 747 mmHg 82%
    08:00 +14°C° 0 mm 4 mps 747 mmHg 76%
    09:00 +15°C° 0 mm 4 mps 747 mmHg 74%
    10:00 +17°C° 0 mm 4 mps 747 mmHg 72%
    11:00 +18°C° 0 mm 4 mps 747 mmHg 69%
    12:00 +19°C° 0 mm 5 mps 747 mmHg 67%
    13:00 +20°C° 0 mm 5 mps 746 mmHg 65%
    14:00 +21°C° 0 mm 5 mps 746 mmHg 63%
    15:00 +21°C° 0 mm 5 mps 746 mmHg 63%
    16:00 +21°C° 0 mm 5 mps 746 mmHg 62%
    17:00 +21°C° 0 mm 4 mps 745 mmHg 62%
    18:00 +20°C° 0 mm 4 mps 745 mmHg 67%
    19:00 +18°C° 0 mm 3 mps 745 mmHg 72%
    20:00 +17°C° 0 mm 2 mps 745 mmHg 78%
    21:00 +16°C° 0 mm 2 mps 745 mmHg 79%
    22:00 +15°C° 0 mm 2 mps 745 mmHg 81%
    23:00 +14°C° 0 mm 2 mps 746 mmHg 82%

    Day after tomorrow, 27 May, Monday

    Time Temperature Precipitation Wind Pressure Humidity
    00:00 +14°C° 0 mm 2 mps 745 mmHg 83%
    01:00 +14°C° 0 mm 2 mps 745 mmHg 84%
    02:00 +12°C° 0 mm 3 mps 745 mmHg 85%
    03:00 +12°C° 0 mm 3 mps 745 mmHg 87%
    04:00 +12°C° 0 mm 3 mps 745 mmHg 89%
    05:00 +12°C° 0 mm 3 mps 745 mmHg 92%
    06:00 +14°C° 0 mm 3 mps 745 mmHg 88%
    07:00 +17°C° 0 mm 4 mps 745 mmHg 84%
    08:00 +19°C° 0 mm 4 mps 746 mmHg 80%
    09:00 +20°C° 0 mm 4 mps 745 mmHg 74%
    10:00 +22°C° 0 mm 4 mps 745 mmHg 69%
    11:00 +23°C° 0 mm 5 mps 745 mmHg 63%
    12:00 +25°C° 0 mm 5 mps 745 mmHg 61%
    13:00 +25°C° 0 mm 5 mps 745 mmHg 58%
    14:00 +26°C° 0 mm 5 mps 745 mmHg 56%
    15:00 +26°C° 0.1 mm 5 mps 744 mmHg 61%
    16:00 +25°C° 0.1 mm 5 mps 744 mmHg 65%
    17:00 +25°C° 0.1 mm 5 mps 744 mmHg 70%
    18:00 +22°C° 0.1 mm 4 mps 744 mmHg 75%
    19:00 +21°C° 0.1 mm 4 mps 744 mmHg 80%
    20:00 +20°C° 0.1 mm 3 mps 744 mmHg 84%
    21:00 +20°C° 0 mm 3 mps 744 mmHg 85%
    22:00 +19°C° 0 mm 3 mps 744 mmHg 86%
    23:00 +18°C° 0 mm 2 mps 744 mmHg 87%

    28 May, Tuesday

    Time Temperature Precipitation Wind Pressure Humidity
    00:00 +18°C° 0 mm 2 mps 744 mmHg 86%
    01:00 +18°C° 0 mm 2 mps 744 mmHg 86%
    02:00 +18°C° 0 mm 2 mps 744 mmHg 85%
    03:00 +18°C° 0 mm 2 mps 744 mmHg 87%
    04:00 +17°C° 0 mm 2 mps 743 mmHg 89%
    05:00 +17°C° 0 mm 3 mps 743 mmHg 92%
    06:00 +18°C° 0.3 mm 3 mps 743 mmHg 90%
    07:00 +19°C° 0.3 mm 3 mps 743 mmHg 88%
    08:00 +20°C° 0.3 mm 4 mps 743 mmHg 86%
    09:00 +21°C° 0.3 mm 4 mps 742 mmHg 82%
    10:00 +22°C° 0.3 mm 5 mps 742 mmHg 77%
    11:00 +24°C° 0.3 mm 6 mps 742 mmHg 72%
    12:00 +24°C° 0.8 mm 6 mps 741 mmHg 72%
    13:00 +24°C° 0.8 mm 6 mps 741 mmHg 71%
    14:00 +26°C° 0.8 mm 5 mps 740 mmHg 71%
    15:00 +25°C° 0.8 mm 5 mps 740 mmHg 73%
    16:00 +25°C° 0.8 mm 4 mps 740 mmHg 75%
    17:00 +25°C° 0.8 mm 4 mps 740 mmHg 77%
    18:00 +23°C° 0.6 mm 4 mps 740 mmHg 81%
    19:00 +21°C° 0.6 mm 4 mps 740 mmHg 85%
    20:00 +20°C° 0.6 mm 3 mps 739 mmHg 89%
    21:00 +19°C° 0 mm 3 mps 739 mmHg 90%
    22:00 +19°C° 0 mm 2 mps 739 mmHg 91%
    23:00 +18°C° 0 mm 2 mps 739 mmHg 92%

    29 May, Wednesday

    Time Temperature Precipitation Wind Pressure Humidity
    00:00 +18°C° 0 mm 2 mps 739 mmHg 92%
    01:00 +18°C° 0 mm 1 mps 739 mmHg 92%
    02:00 +18°C° 0 mm 1 mps 739 mmHg 92%
    03:00 +18°C° 0 mm 1 mps 739 mmHg 93%
    04:00 +18°C° 0 mm 1 mps 739 mmHg 93%
    05:00 +17°C° 0 mm 2 mps 739 mmHg 93%
    06:00 +18°C° 0 mm 2 mps 739 mmHg 91%
    07:00 +19°C° 0 mm 3 mps 739 mmHg 89%
    08:00 +20°C° 0 mm 3 mps 740 mmHg 86%
    09:00 +20°C° 0.4 mm 4 mps 740 mmHg 84%
    10:00 +21°C° 0.4 mm 4 mps 740 mmHg 82%
    11:00 +22°C° 0.4 mm 5 mps 741 mmHg 80%
    12:00 +21°C° 0.2 mm 5 mps 741 mmHg 81%
    13:00 +21°C° 0.2 mm 6 mps 742 mmHg 82%
    14:00 +20°C° 0.2 mm 6 mps 742 mmHg 82%
    15:00 +19°C° 0.2 mm 6 mps 743 mmHg 85%
    16:00 +16°C° 0.2 mm 6 mps 743 mmHg 87%
    17:00 +15°C° 0.2 mm 6 mps 744 mmHg 89%
    18:00 +14°C° 0 mm 6 mps 744 mmHg 88%
    19:00 +13°C° 0 mm 6 mps 745 mmHg 88%
    20:00 +12°C° 0 mm 5 mps 746 mmHg 87%
    21:00 +10°C° 0 mm 5 mps 746 mmHg 87%
    22:00 +10°C° 0 mm 6 mps 747 mmHg 87%
    23:00 +9°C° 0 mm 6 mps 748 mmHg 86%

    30 May, Thursday

    Time Temperature Precipitation Wind Pressure Humidity
    00:00 +9°C° 0 mm 5 mps 748 mmHg 86%
    01:00 +9°C° 0 mm 5 mps 749 mmHg 85%
    02:00 +8°C° 0 mm 4 mps 749 mmHg 84%
    03:00 +8°C° 0.4 mm 4 mps 749 mmHg 86%
    04:00 +8°C° 0.4 mm 4 mps 750 mmHg 88%
    05:00 +7°C° 0.4 mm 4 mps 750 mmHg 90%
    06:00 +7°C° 0.4 mm 4 mps 751 mmHg 90%
    07:00 +7°C° 0.4 mm 4 mps 751 mmHg 90%
    08:00 +7°C° 0.4 mm 4 mps 752 mmHg 90%
    09:00 +7°C° 0.2 mm 4 mps 752 mmHg 89%
    10:00 +8°C° 0.2 mm 4 mps 752 mmHg 88%
    11:00 +8°C° 0.2 mm 4 mps 753 mmHg 87%
    12:00 +10°C° 0 mm 3 mps 753 mmHg 85%
    13:00 +10°C° 0 mm 3 mps 753 mmHg 83%
    14:00 +12°C° 0 mm 2 mps 753 mmHg 80%
    15:00 +13°C° 0 mm 2 mps 753 mmHg 77%
    16:00 +13°C° 0 mm 3 mps 753 mmHg 73%
    17:00 +13°C° 0 mm 3 mps 753 mmHg 70%
    18:00 +14°C° 0 mm 2 mps 753 mmHg 73%
    19:00 +13°C° 0 mm 2 mps 752 mmHg 77%
    20:00 +12°C° 0 mm 1 mps 752 mmHg 81%
    21:00 +12°C° 0 mm 1 mps 752 mmHg 80%
    22:00 +12°C° 0 mm 1 mps 752 mmHg 80%
    23:00 +11°C° 0 mm 1 mps 752 mmHg 79%
    Show more